Lexington Weather

Lexington, Massachusetts, USA

43°F
4/22/2024 8:36am 
  • Lexington Conditions: Clear
  • Temperature: 43.0°F / 6.1°CWarmer 4.0°F than last hour.
  • Dew Point: 27.5°FDecreased 2.5°Fsince last hour.
  • Relative Humidity: 54%Decreased 16.0% since last hour.
  • Wind: Calm, 10-min avg: Calm, gust: None
  • Barometer: 29.96 inRising 0.02  inHg/hr Rising Slowly
  • Visibility: 10 miles
  • Rain Today: 0.00 in
  •   

Regional Weather Roundup
for Boston, MA

        
000
ASUS41 KBOX 172110
RWRBOX

REGIONAL WEATHER ROUNDUP
NATIONAL WEATHER SERVICE BOSTON/NORTON MA
500 PM EDT WED APR 17 2024

NOTE:  "FAIR" INDICATES FEW OR NO CLOUDS BELOW 12,000 FEET WITH NO 
SIGNIFICANT WEATHER AND/OR OBSTRUCTIONS TO VISIBILITY.

MAZALL-172200-
EASTERN MASSACHUSETTS
  
CITY           SKY/WX    TMP DP  RH WIND       PRES   REMARKS
BOSTON         CLOUDY    48  37  65 E16       30.13S                  
BEVERLY        PTSUNNY   46  34  62 SE13      30.12F                  
LAWRENCE       PTSUNNY   51  34  52 SE8       30.12S                  
BEDFORD        PTSUNNY   52  34  50 SE14      30.09S                  
NORWOOD        PTSUNNY   57  37  47 SE13      30.10S                  
MARSHFIELD     PTSUNNY   48  37  66 SE12      30.14S                  
PLYMOUTH       PTSUNNY   52  36  54 SE12      30.12S                  
TAUNTON        CLOUDY    56  36  47 SE14G22   30.12R                  
NEW BEDFORD    CLOUDY    50  35  56 SE10G20   30.13F                  
$$

MAZALL-172200-
CAPE COD AND THE ISLANDS
  
CITY           SKY/WX    TMP DP  RH WIND       PRES   REMARKS
FALMOUTH       PTSUNNY   46  34  61 SE12      30.15                   
HYANNIS        CLOUDY    46  32  58 SE10      30.14S                  
CHATHAM        PTSUNNY   47  34  60 E8        30.17S                  
PROVINCETOWN   PTSUNNY   48  35  60 SE10      30.16F                  
NANTUCKET      CLOUDY    45  36  70 SE10      30.16F                  
MARTHAS VNYRD  CLOUDY    47  38  71 SE8       30.15S                  
$$
 
MAZALL-172200-
CENTRAL AND WESTERN MASSACHUSETTS
  
CITY           SKY/WX    TMP DP  RH WIND       PRES   REMARKS
WORCESTER      PTSUNNY   61  33  35 S10       30.06F                  
FITCHBURG      PTSUNNY   66  32  28 SW5       30.05F                  
ORANGE         CLOUDY    62  35  36 S8        30.07S                  
SPRINGFIELD    NOT AVBL                                               
WESTFIELD      CLOUDY    61  35  37 S13       30.07S                  
NORTH ADAMS    CLOUDY    66  36  32 SW9       30.03S                  
PITTSFIELD     CLOUDY    60  35  39 SW8       30.04S                  
$$
 
RIZALL-172200-
RHODE ISLAND
  
CITY           SKY/WX    TMP DP  RH WIND       PRES   REMARKS
PROVIDENCE     CLOUDY    49  37  63 S13       30.13F                  
NEWPORT        CLOUDY    45  37  73 SE9       30.13F                  
BLOCK ISLAND   CLOUDY    45  38  76 SE13      30.15S                  
SMITHFIELD     CLOUDY    51  35  54 VRB5      30.11S                  
WESTERLY       CLOUDY    47  39  74 E8        30.14F                  
$$
 
CTZALL-172200-
CONNECTICUT
  
CITY           SKY/WX    TMP DP  RH WIND       PRES   REMARKS
BRADLEY INTL   CLOUDY    59  34  39 S13       30.09R                  
HARTFORD       CLOUDY    54  34  46 S12       30.11R                  
PLAINVILLE     CLOUDY    55  32  40 SE9       30.10S                  
BRIDGEPORT     CLOUDY    50  43  77 E12       30.12F                  
DANBURY        LGT RAIN  55  36  48 SE8       30.10F                  
GROTON         CLOUDY    48  41  76 SE10      30.14S                  
NEW HAVEN      CLOUDY    51  42  71 E9        30.13R                  
CHESTER        CLOUDY    48  37  66 SE5       30.13R                  
MERIDEN        CLOUDY    53  33  46 S8        30.11F                  
WILLIMANTIC    CLOUDY    52  32  46 S13       30.12S                  
OXFORD         CLOUDY    51  37  58 S10       30.11F                  
$$

MEZ002-015-021-024-NHZ003-005-008-011-012-014-VTZ005-008-172200-
NORTHERN NEW ENGLAND
  
CITY           SKY/WX    TMP DP  RH WIND       PRES   REMARKS
PORTLAND ME    MOSUNNY   48  33  56 S10       30.13F                  
BANGOR ME      MOSUNNY   55  27  34 N10G22    30.11S                  
CONCORD NH     PTSUNNY   62  28  27 NE5       30.07F                  
MANCHESTER NH  PTSUNNY   61  35  37 SE8G17    30.06S                  
NASHUA NH      PTSUNNY   63  36  36 E20       30.07F                  
PORTSMOUTH NH  CLOUDY    47  33  58 SE14      30.13S                  
JAFFREY NH     PTSUNNY   64  30  27 CALM      30.05F                  
KEENE NH       CLOUDY    63  33  32 CALM      30.05F                  
BURLINGTON VT  PTSUNNY   53  30  41 N12       30.11F                  
MT. WASHINGTON PTSUNNY   28  23  80 NW7         N/A  WCI  21          
$$

NYZ052-076-172200-
EASTERN NEW YORK
  
CITY           SKY/WX    TMP DP  RH WIND       PRES   REMARKS
ALBANY         CLOUDY    64  37  36 S7        30.05F                  
NEW YORK CITY  LGT RAIN  51  42  71 E15       30.07F                  
$$
 
ANZALL-172200-
MARINE OBSERVATIONS
  
STATION/POSITION TIME  TEMP    WIND        PRES    VSBY  WAVE
                       AIR SEA DIR/SP/G                  HT/PER
                 (UTC) (F)     (DEG/KT/KT) (MB)    (MI)  (FT/S)
BOSTON BUOY      2050   44     120/ 14/ 17 1020.1F         3/ 9
BUZZARDS BAY     2000   45     150/ 12/ 13 1021.5F
NANTUCKET SOUND  2050   45 48  110/ 12/ 14 1020.9F         1/ 3
MASS BAY-STELLWA 1904   44 46  130/ 12/ 14 1022.0   1 7/8  3/ 8
ISLE OF SHOALS   2000   43     130/ 16/ 18 1019.9F
S OF BLOCK IS    2056      45                N/A           3/ 8
$$

......................KEY.........................
  SKY/WX - SKY CONDITION/PRESENT WEATHER
  TMP    - TEMPERATURE IN FAHRENHEIT
  DWPT   - DEWPOINT IN FAHRENHEIT
  RH     - RELATIVE HUMIDITY IN PERCENT
  WIND   - DIRECTION AND SPEED IN MPH
  PRES   - MEAN SEA LEVEL PRESSURE IN INCHES OF HG
  WCI    - WIND CHILL INDEX
  VSB    - VISIBILITY IN MILES
  HX     - HEAT INDEX
  TC     - TEMPERATURE IN CELSIUS
  VRB    - VARIABLE WIND DIRECTION
  N/A    - NOT AVAILABLE
  
      

Other recent Regional Weather Roundups

Mon Apr 22, 8:10am EDT

Mon Apr 22, 7:10am EDT

Mon Apr 22, 6:10am EDT

Mon Apr 22, 5:10am EDT

Mon Apr 22, 4:10am EDT

Mon Apr 22, 3:10am EDT

Mon Apr 22, 2:10am EDT

Mon Apr 22, 1:10am EDT

Mon Apr 22, 12:10am EDT

Sun Apr 21, 11:10pm EDT

Sun Apr 21, 10:10pm EDT

Sun Apr 21, 9:10pm EDT

Sun Apr 21, 8:10pm EDT

Sun Apr 21, 7:10pm EDT

Sun Apr 21, 6:10pm EDT

Sun Apr 21, 5:10pm EDT

Sun Apr 21, 4:10pm EDT

Sun Apr 21, 3:10pm EDT

Sun Apr 21, 2:10pm EDT

Sun Apr 21, 1:10pm EDT

Sun Apr 21, 12:10pm EDT

Sun Apr 21, 11:10am EDT

Sun Apr 21, 10:10am EDT

Sun Apr 21, 9:10am EDT

Sun Apr 21, 8:10am EDT

Sun Apr 21, 7:10am EDT

Sun Apr 21, 6:10am EDT

Sun Apr 21, 5:10am EDT

Sun Apr 21, 4:10am EDT

Sun Apr 21, 3:10am EDT

Sun Apr 21, 2:10am EDT

Sun Apr 21, 1:10am EDT

Sun Apr 21, 12:10am EDT

Sat Apr 20, 11:10pm EDT

Sat Apr 20, 10:10pm EDT

Sat Apr 20, 9:10pm EDT

Sat Apr 20, 8:10pm EDT

Sat Apr 20, 7:10pm EDT

Sat Apr 20, 6:10pm EDT

Sat Apr 20, 5:10pm EDT

Sat Apr 20, 4:10pm EDT

Sat Apr 20, 3:10pm EDT

Sat Apr 20, 2:10pm EDT

Sat Apr 20, 1:10pm EDT

Sat Apr 20, 12:10pm EDT

Sat Apr 20, 11:10am EDT

Sat Apr 20, 10:10am EDT

Sat Apr 20, 9:10am EDT

Sat Apr 20, 8:10am EDT

Sat Apr 20, 7:10am EDT

Sat Apr 20, 6:10am EDT

Sat Apr 20, 5:10am EDT

Sat Apr 20, 4:10am EDT

Sat Apr 20, 3:10am EDT

Sat Apr 20, 2:10am EDT

Sat Apr 20, 1:10am EDT

Sat Apr 20, 12:10am EDT

Fri Apr 19, 11:10pm EDT

Fri Apr 19, 10:10pm EDT

Fri Apr 19, 9:10pm EDT

Fri Apr 19, 8:10pm EDT

Fri Apr 19, 7:10pm EDT

Fri Apr 19, 6:10pm EDT

Fri Apr 19, 5:10pm EDT

Fri Apr 19, 4:10pm EDT

Fri Apr 19, 3:10pm EDT

Fri Apr 19, 2:10pm EDT

Fri Apr 19, 1:10pm EDT

Fri Apr 19, 12:10pm EDT

Fri Apr 19, 11:10am EDT

Fri Apr 19, 10:10am EDT

Fri Apr 19, 9:10am EDT

Fri Apr 19, 8:10am EDT

Fri Apr 19, 7:10am EDT

Fri Apr 19, 6:10am EDT

Fri Apr 19, 5:10am EDT

Fri Apr 19, 4:10am EDT

Fri Apr 19, 3:10am EDT

Fri Apr 19, 2:10am EDT

Fri Apr 19, 1:10am EDT

Fri Apr 19, 12:10am EDT

Thu Apr 18, 11:10pm EDT

Thu Apr 18, 10:10pm EDT

Thu Apr 18, 9:10pm EDT

Thu Apr 18, 8:10pm EDT

Thu Apr 18, 7:10pm EDT

Thu Apr 18, 6:10pm EDT

Thu Apr 18, 5:10pm EDT

Thu Apr 18, 4:10pm EDT

Thu Apr 18, 3:10pm EDT

Thu Apr 18, 2:10pm EDT

Thu Apr 18, 1:10pm EDT

Thu Apr 18, 12:10pm EDT

Thu Apr 18, 11:10am EDT

Thu Apr 18, 10:10am EDT

Thu Apr 18, 9:10am EDT

Thu Apr 18, 8:10am EDT

Thu Apr 18, 7:10am EDT

Thu Apr 18, 6:10am EDT

Thu Apr 18, 5:10am EDT

Thu Apr 18, 4:10am EDT

Thu Apr 18, 3:10am EDT

Thu Apr 18, 2:10am EDT

Thu Apr 18, 1:10am EDT

Thu Apr 18, 12:10am EDT

Wed Apr 17, 11:10pm EDT

Wed Apr 17, 10:10pm EDT

Wed Apr 17, 9:10pm EDT

Wed Apr 17, 8:10pm EDT

Wed Apr 17, 7:10pm EDT

Wed Apr 17, 6:10pm EDT

Wed Apr 17, 4:10pm EDT

Wed Apr 17, 3:10pm EDT

Wed Apr 17, 2:10pm EDT

Wed Apr 17, 1:10pm EDT

Wed Apr 17, 12:10pm EDT

Wed Apr 17, 11:10am EDT

Wed Apr 17, 10:10am EDT

Wed Apr 17, 9:10am EDT

Wed Apr 17, 8:10am EDT

Wed Apr 17, 7:10am EDT

Wed Apr 17, 6:10am EDT

Wed Apr 17, 5:10am EDT

Wed Apr 17, 4:10am EDT

Wed Apr 17, 3:10am EDT

Wed Apr 17, 2:10am EDT

Wed Apr 17, 1:10am EDT

Wed Apr 17, 12:10am EDT

Tue Apr 16, 11:10pm EDT

Tue Apr 16, 10:10pm EDT

Tue Apr 16, 9:10pm EDT

Tue Apr 16, 8:10pm EDT

Tue Apr 16, 7:10pm EDT

Tue Apr 16, 6:10pm EDT

Tue Apr 16, 5:10pm EDT

Tue Apr 16, 4:10pm EDT

Tue Apr 16, 3:10pm EDT

Tue Apr 16, 2:10pm EDT

Tue Apr 16, 1:10pm EDT

Tue Apr 16, 12:10pm EDT

Tue Apr 16, 11:10am EDT

Tue Apr 16, 10:10am EDT

Tue Apr 16, 9:10am EDT

Tue Apr 16, 8:10am EDT

Tue Apr 16, 7:10am EDT

Tue Apr 16, 6:10am EDT

Tue Apr 16, 5:10am EDT

Tue Apr 16, 4:10am EDT

Tue Apr 16, 3:10am EDT

Tue Apr 16, 2:10am EDT

Tue Apr 16, 1:10am EDT

Tue Apr 16, 12:10am EDT

Mon Apr 15, 11:10pm EDT

Mon Apr 15, 10:10pm EDT

Mon Apr 15, 9:10pm EDT

Mon Apr 15, 8:10pm EDT

Mon Apr 15, 7:10pm EDT

Mon Apr 15, 6:10pm EDT

Mon Apr 15, 5:10pm EDT

Mon Apr 15, 4:10pm EDT

Mon Apr 15, 3:10pm EDT

Mon Apr 15, 2:10pm EDT

Mon Apr 15, 1:10pm EDT

Mon Apr 15, 12:10pm EDT

Mon Apr 15, 11:10am EDT

Mon Apr 15, 10:10am EDT

Mon Apr 15, 9:10am EDT